Weather History for KNYC - October, 2012

Change the Weather History Date:

Monday, October 22, 2012

  Actual Average Record
Temperature  
Mean Temperature 58 °F 55 °F  
Max Temperature 66 °F 62 °F 88 °F (1979)
Min Temperature 49 °F 48 °F 30 °F (1940)
Degree Days  
Heating Degree Days 7 10  
Month to date heating degree days 149 163  
Since 1 July heating degree days 171 208  
Cooling Degree Days 0 0  
Month to date cooling degree days 15 13  
Year to date cooling degree days 1277 1100  
Growing Degree Days 7 (Base 50)    
Moisture  
Dew Point 41 °F    
Average Humidity 57    
Maximum Humidity 77    
Minimum Humidity 37    
Precipitation  
Precipitation 0.00 in 0.15 in 1.51 in (2014)
Month to date precipitation 1.94 3.16  
Year to date precipitation 30.92 40.68  
Snow  
Snow 0.00 in 0.00 in 0.00 in (2002)
Month to date snowfall 0.0 0.0  
Since 1 July snowfall 0.0 0.0  
Snow Depth 0.00 in    
Sea Level Pressure  
Sea Level Pressure 30.05 in    
Wind  
Wind Speed 4 mph (WNW)    
Max Wind Speed 13 mph    
Max Gust Speed 22 mph    
Visibility 10 miles    
Events      
T = Trace of Precipitation, MM = Missing Value Source: NWS Daily Summary

Daily Weather History Graph

Daily Weather History Graph

Search for Another Location

Airport or City:

Trip Planner

Search our weather history database for the weather conditions in past years. The results will help you decide how hot, cold, wet, or windy it might be!

Date:

Astronomy

Oct. 22, 2012 Rise Set
Actual Time 7:15 AM EDT 6:04 PM EDT
Civil Twilight 6:47 AM EDT 6:32 PM EDT
Nautical Twilight 6:15 AM EDT 7:04 PM EDT
Astronomical Twilight 5:43 AM EDT 7:36 PM EDT
Moon 2:13 PM EDT (10/22) No Moon Set
Length of Visible Light 11h 45m
Length of Day
10h 49m
First Quarter, 56% of the Moon is Illuminated
Oct 22
First Quarter
Oct 29
Full
Nov 6
Last Quarter
Nov 13
New
Nov 20
First Quarter

Hourly Weather History & Observations

Time (EDT) Temp. Dew Point Humidity Pressure Visibility Wind Dir Wind Speed Gust Speed Precip Events Conditions
12:51 AM 55.9 °F 39.0 °F 53% 30.02 in 10.0 mi Variable 4.6 mph - N/A   Clear
1:51 AM 55.0 °F 39.9 °F 57% 30.03 in 10.0 mi Variable 6.9 mph - N/A   Clear
2:51 AM 54.0 °F 39.0 °F 57% 30.03 in 10.0 mi Variable 4.6 mph - N/A   Clear
4:51 AM 51.1 °F 39.9 °F 66% 30.05 in 10.0 mi Calm Calm - N/A   Clear
5:51 AM 50.0 °F 41.0 °F 71% 30.07 in 10.0 mi Calm Calm - N/A   Clear
6:51 AM 48.9 °F 41.0 °F 74% 30.08 in 10.0 mi Calm Calm - N/A   Clear
7:51 AM 50.0 °F 41.0 °F 71% 30.09 in 10.0 mi WNW 4.6 mph - N/A   Clear
8:51 AM 52.0 °F 41.0 °F 66% 30.11 in 10.0 mi Variable 3.5 mph - N/A   Clear
9:51 AM 54.0 °F 41.0 °F 62% 30.11 in 10.0 mi West 3.5 mph - N/A   Clear
10:51 AM 57.0 °F 42.1 °F 57% 30.09 in 10.0 mi Variable 4.6 mph - N/A   Clear
11:51 AM 60.1 °F 41.0 °F 49% 30.08 in 10.0 mi North - - N/A   Clear
12:51 PM 63.0 °F 39.9 °F 43% 30.05 in 10.0 mi North - - N/A   Clear
1:51 PM 64.0 °F 39.0 °F 40% 30.03 in 10.0 mi NW 11.5 mph 17.3 mph N/A   Clear
2:51 PM 66.0 °F 41.0 °F 40% 30.01 in 10.0 mi North - - N/A   Clear
3:51 PM 66.0 °F 39.0 °F 37% 30.01 in 10.0 mi Variable 6.9 mph - N/A   Clear
4:51 PM 66.0 °F 41.0 °F 40% 30.01 in 10.0 mi Variable 5.8 mph - N/A   Clear
5:51 PM 64.9 °F 41.0 °F 42% 30.02 in 10.0 mi Variable 3.5 mph - N/A   Clear
6:51 PM 64.0 °F 41.0 °F 43% 30.04 in 10.0 mi West 6.9 mph - N/A   Clear
7:51 PM 63.0 °F 41.0 °F 45% 30.05 in 10.0 mi Variable 4.6 mph - N/A   Clear
8:51 PM 62.1 °F 41.0 °F 46% 30.06 in 10.0 mi Variable 4.6 mph - N/A   Clear
9:51 PM 62.1 °F 41.0 °F 46% 30.06 in 10.0 mi Variable 3.5 mph - N/A   Clear
10:51 PM 60.1 °F 41.0 °F 49% 30.07 in 10.0 mi Calm Calm - N/A   Clear
11:51 PM 57.9 °F 42.1 °F 56% 30.07 in 10.0 mi West 3.5 mph - N/A   Clear